Hourly Data Report for October 28, 2016

All times are specified in Local Standard Time (LST). Add 1 hour to adjust for Daylight Saving Time where and when it is observed.

MONCTON INTL A
NEW BRUNSWICK

46°06'44.000" N
64°40'43.000" W
70.70 m
8103201
71705
YQM

Download Data

Hourly Data (October 2016)
Hourly Data Report for October 28, 2016
Temp Definition
°C
Dew Point Temp Definition
°C
Rel Hum Definition
%
Wind Dir Definition
10's deg

Wind Spd Definition
km/h
Visibility Definition
km
Stn Press Definition
kPa
Hmdx Definition


Wind Chill Definition


Weather Definition


TIME
00:00 Legend Double Dagger 0.7 -0.8 90 4 4 24.1 102.42     LegendNANA
01:00 Legend Double Dagger -0.1 -1.5 90 7 5 24.1 102.41   -2 LegendNANA
02:00 Legend Double Dagger -1.6 -2.4 94 10 5 24.1 102.37   -3 Mainly Clear
03:00 Legend Double Dagger -0.7 -1.7 93 11 9 24.1 102.31   -4 LegendNANA
04:00 Legend Double Dagger -0.3 -1.6 91 8 13 24.1 102.24   -4 LegendNANA
05:00 Legend Double Dagger -0.3 -1.7 90 9 12 24.1 102.18   -4 Mostly Cloudy
06:00 Legend Double Dagger -0.4 -2.0 89 11 8 24.1 102.21   -3 LegendNANA
07:00 Legend Double Dagger 0.4 -1.1 90 12 9 24.1 102.26     LegendNANA
08:00 Legend Double Dagger 0.4 -1.2 89 9 10 24.1 102.19     Mostly Cloudy
09:00 Legend Double Dagger 1.7 -0.7 84 10 13 24.1 102.16     LegendNANA
10:00 Legend Double Dagger 3.3 -0.3 77 9 13 24.1 102.10     LegendNANA
11:00 Legend Double Dagger 4.8 0.4 73 9 18 24.1 102.03     Mostly Cloudy
12:00 Legend Double Dagger 5.5 -1.0 63 8 24 24.1 101.86     LegendNANA
13:00 Legend Double Dagger 5.8 -1.6 59 10 22 24.1 101.79     LegendNANA
14:00 Legend Double Dagger 5.6 -0.9 63 8 16 24.1 101.66     Mostly Cloudy
15:00 Legend Double Dagger 5.5 0.9 72 9 16 24.1 101.62     LegendNANA
16:00 Legend Double Dagger 5.5 1.4 75 7 13 24.1 101.55     LegendNANA
17:00 Legend Double Dagger 4.5 2.5 87 8 14 24.1 101.50     Rain
18:00 Legend Double Dagger 4.0 2.8 92 7 14 19.3 101.44     Rain
19:00 Legend Double Dagger 3.8 2.3 90 8 16 19.3 101.42     Rain
20:00 Legend Double Dagger 3.4 2.5 94 3 9 19.3 101.35     Rain
21:00 Legend Double Dagger 3.6 2.9 95 4 12 19.3 101.27     Rain
22:00 Legend Double Dagger 3.9 3.3 96 4 14 19.3 101.14     Rain
23:00 Legend Double Dagger 4.6 4.2 97 4 17 24.1 101.03     Rain

Notes on Data Quality.

Legend

  • E = Estimated
  • M = Missing
  • NA = Not Available
  • ‡ = Partner data that is not subject to review by the National Climate Archives
Date modified: